Terminal Aerodrome Forecast
Issued by NWS

Current Version | Previous Version | Text Only | Print | Product List | Glossary On
Versions: 1 2 3 4 5 6 7 8 9 10 11 12 13 14 15 16 17 18 19 20 21 22 23 24 25 26 27
000
FTAK31 PAFA 010333 AAA
TAFAMC
TAF AMD
PAMC 010333Z 0104/0124 02008KT 5SM HZ VCTS FEW045 SCT060CB SCT080
     FM010900 24006KT 6SM -SHRA SCT035 BKN050 OVC100=

USA.gov is the U.S. government's official web portal to all federal, state and local government web resources and services.